Regional Weather Roundup
Issued by NWS

Home | Current Version | Previous Version | Graphics & Text | Print | Product List | Glossary On
Versions: 1 2 3 4 5 6 7 8 9 10 11 12 13 14 15 16 17 18 19 20 21 22 23 24 25 26 27 28 29 30 31 32 33 34 35 36 37 38 39 40 41 42 43 44 45 46 47 48 49 50
109
ASUS44 KJAN 201310
RWRMS

MISSISSIPPI HOURLY WEATHER ROUNDUP
NATIONAL WEATHER SERVICE JACKSON MS
800 AM CDT SUN APR 20 2014

NOTE: "FAIR: INDICATES FEW OR NO CLOUDS BELOW 12,000 FEET WITH NO
SIGNIFICANT WEATHER AND/OR OBSTRUCTIONS TO VISIBILITY.

MSZ001>002-007>008-010>013-018>021-025>028-034>036-201400-
NORTHWEST MISSISSIPPI

CITY           SKY/WX    TMP DP  RH WIND       PRES   REMARKS
CLARKSDALE       N/A     59  54  82 CALM      30.21R
CLEVELAND      FAIR      57  54  88 CALM      30.19R
GREENWOOD      SUNNY     57  48  72 E3        30.21R
GREENVILLE     SUNNY     62  51  67 CALM      30.19R
GRENADA        FAIR      55  52  88 E8        30.23R
OLIVE BRANCH   MOSUNNY   57  48  72 S6        30.21R
OXFORD         FAIR      59  43  55 SE3       30.24R
TUNICA         SUNNY     55  52  88 CALM      30.21R
$$

MSZ003>006-009-014>017-022>024-029>033-037>039-201400-
NORTHEAST MISSISSIPPI

CITY           SKY/WX    TMP DP  RH WIND       PRES   REMARKS
BELMONT        FAIR      53  48  83 CALM      30.26R
COLUMBUS AFB   SUNNY     54  51  89 E3        30.25R
CORINTH        FAIR      52  46  82 SE3       30.24R
GOLDN TRIANGLE SUNNY     57  46  67 S7        30.27R
STARKVILLE     FAIR      55  50  82 S3        30.24R
TUPELO         SUNNY     58  49  72 S6        30.24R
$$

MSZ040-058-201400-
CENTRAL MISSISSIPPI

CITY           SKY/WX    TMP DP  RH WIND       PRES   REMARKS
JACKSON INTL   MOSUNNY   59  53  80 SE6       30.21R
JACKSON HAWKNS SUNNY     59  51  75 SE6       30.20R
MERIDIAN KEY   SUNNY     55  51  86 CALM      30.23R
MERIDIAN NAS   SUNNY     56  50  80 E8        30.24R
RAYMOND        FAIR      55  50  82 CALM      30.21R
VICKSBURG      SUNNY     61  58  90 CALM      30.19R
$$

MSZ059>079-201400-
SOUTH MISSISSIPPI

CITY           SKY/WX    TMP DP  RH WIND       PRES   REMARKS
BROOKHAVEN     FAIR      54  54 100 CALM      30.21R FOG
COLUMBIA       FAIR      59  55  88 MISG      30.19S
HATTIESBURG    SUNNY     57  53  86 CALM      30.22R
MCCOMB         SUNNY     60  51  72 VRB3      30.18S
NATCHEZ        SUNNY     55  52  88 CALM      30.19R
PINE BELT      SUNNY     57  52  82 NE3       30.22R
$$

MSZ080>082-201400-
COASTAL MISSISSIPPI

CITY           SKY/WX    TMP DP  RH WIND       PRES   REMARKS
BAY ST LOUIS   SUNNY     55  50  82 NE3       30.19R
BILOXI         SUNNY     61  56  82 NE7       30.19R
PASCAGOULA     SUNNY     59  54  83 NE7       30.19R
GULFPORT       SUNNY     65  55  70 NE6       30.19R
$$



USA.gov is the U.S. government's official web portal to all federal, state and local government web resources and services.